Dewpoint
6 6 9 11 13 12 12 11 10 10 11 12 11 9 7 7 8 10 10 10 9 9 7 9 9 9 9 9 8 8 8 8
5 6 12 13 11 11 13 12 12 12 12 10 11 10 9 8 10 11 10 9 8 7 8 9 8 8 8 8 6 8 7 7
4 7 12 11 12 11 11 12 12 12 11 8 9 9 10 9 11 11 10 9 7 8 9 9 8 8 8 7 7 7 7 6
4 8 9 10 11 10 10 11 12 12 11 8 8 9 10 9 8 10 9 9 8 8 9 8 8 7 8 8 7 6 5 5
6 8 9 10 10 10 11 10 11 12 10 9 8 8 9 10 9 10 9 10 9 9 9 8 8 7 8 7 6 6 2 3
3 8 9 10 10 11 10 10 11 11 11 8 9 10 10 8 9 8 9 9 9 9 9 9 8 7 7 7 4 -2 -3 -1
3 6 9 9 9 11 10 10 11 11 11 10 11 11 9 9 9 9 8 8 9 9 9 8 7 7 7 6 4 3 -5 -4
3 6 8 9 9 11 10 10 11 11 11 11 11 10 10 10 9 8 8 8 9 9 8 7 6 7 7 6 6 5 2 -5
5 6 8 8 9 10 10 11 11 11 11 11 11 9 9 9 9 8 9 9 9 8 8 7 7 7 6 6 6 6 4 -2
7 6 8 9 10 9 10 10 10 11 11 11 11 9 9 9 9 8 9 8 9 8 7 7 7 6 7 6 6 6 5 3
7 6 8 9 9 9 9 10 10 10 11 11 11 10 10 10 9 8 9 6 9 8 7 7 7 7 5 6 6 6 6 5
8 7 7 9 9 9 9 10 10 10 10 9 10 10 10 10 10 8 8 4 9 8 7 6 6 6 6 6 6 7 6 6
8 7 6 10 9 9 9 10 11 10 10 10 10 10 10 10 9 9 5 1 3 5 6 6 6 7 7 7 7 7 7 6
8 7 5 10 10 10 9 9 11 10 11 10 10 10 10 10 9 9 3 -0 2 3 4 5 6 7 7 7 8 7 7 7
8 7 5 9 11 10 9 9 10 10 10 10 10 9 8 8 9 9 3 -3 -3 1 4 4 6 7 7 7 7 7 7 7
8 7 6 6 11 9 9 9 10 10 10 10 10 10 10 9 8 8 7 -1 -4 -5 1 1 6 6 7 7 6 6 7 7
8 8 7 4 11 9 9 9 9 10 9 9 10 10 10 10 9 7 9 7 -1 -8 -8 -1 6 6 6 7 7 6 6 4
8 8 7 3 8 10 9 9 9 9 9 9 9 10 10 10 9 9 8 8 3 -5 -5 -2 6 5 4 4 6 7 6 2
8 7 7 2 5 9 10 9 9 9 9 9 9 9 9 9 10 9 8 9 6 -1 4 2 2 5 5 6 6 6 5 -0
7 7 7 4 3 8 9 9 9 8 7 8 8 8 8 9 9 9 8 8 8 6 1 5 5 5 5 6 6 5 5 3
Wind_Speed
8 12 17 16 16 20 23 24 23 24 26 26 29 25 26 21 20 24 27 28 27 27 28 28 25 24 22 19 17 16 16 17
8 10 17 18 17 18 22 25 27 26 24 25 21 24 25 24 25 27 27 27 27 29 30 28 26 23 20 17 15 15 14 16
9 9 17 17 14 15 19 22 24 25 28 32 26 32 23 27 26 24 27 26 28 31 30 28 25 22 19 17 15 12 12 14
10 10 13 16 16 18 18 18 20 20 35 29 26 24 26 30 28 23 25 24 31 30 29 27 24 21 20 17 12 11 11 16
10 12 14 16 19 20 23 22 23 27 33 31 40 32 28 27 27 26 25 25 33 33 31 27 24 21 21 17 11 11 11 16
12 12 15 16 17 21 22 24 25 23 24 34 36 37 34 31 33 30 27 30 37 37 33 28 23 22 19 15 9 11 13 15
12 12 15 15 15 18 21 23 22 21 25 30 40 36 36 29 36 31 30 33 40 37 31 27 24 23 20 14 11 10 13 15
13 13 13 14 13 16 19 19 20 20 25 32 36 36 32 40 36 33 32 38 40 36 32 28 25 25 21 16 13 9 11 14
15 14 12 11 12 15 17 19 20 22 30 33 36 36 34 34 34 35 34 41 40 35 31 29 27 26 20 18 13 10 9 14
15 14 13 13 16 14 15 18 20 21 24 30 36 37 36 36 37 37 35 42 41 37 33 30 29 24 22 19 15 11 10 11
17 15 15 16 16 17 16 16 17 18 22 26 30 35 38 37 41 38 34 40 41 38 34 32 29 26 20 19 17 13 11 10
18 15 16 17 17 15 16 15 17 17 16 21 27 37 36 40 35 36 34 40 42 40 38 34 31 25 22 22 18 14 13 10
20 18 17 19 20 20 19 15 16 15 11 11 25 43 43 34 34 36 36 42 44 43 40 36 29 26 25 24 21 18 16 14
23 19 17 20 20 19 19 18 17 14 14 16 20 20 27 25 30 33 36 37 40 42 42 39 33 29 30 26 21 20 20 18
25 20 17 19 21 19 18 18 17 15 16 22 24 28 28 32 31 33 33 37 40 43 46 46 42 33 30 22 14 10 22 20
26 21 18 18 23 20 19 18 20 20 20 21 25 31 27 33 35 37 31 34 35 40 43 43 41 37 31 30 24 14 17 13
28 22 18 19 22 22 20 21 18 18 19 21 27 28 30 27 33 36 36 36 37 37 39 45 39 38 36 31 27 23 18 16
30 25 19 18 21 23 24 22 23 22 21 22 25 26 30 31 28 38 33 34 37 37 35 40 42 37 35 34 33 30 25 21
32 26 20 18 19 21 23 23 24 23 23 25 23 24 28 33 35 34 32 31 36 37 39 36 39 40 37 36 35 33 30 26
32 27 21 17 16 17 19 19 19 18 16 17 20 22 28 24 37 36 34 33 35 41 39 40 39 38 36 41 40 38 36 30
Wind_Direction
235 228 224 218 213 220 220 220 217 215 205 201 189 193 189 185 189 178 169 174 176 176 179 171 169 172 175 174 177 180 185 190
228 232 222 224 224 224 214 216 217 206 184 192 181 174 180 190 199 182 175 173 175 182 176 168 169 170 175 173 172 181 186 188
241 238 218 224 223 224 225 223 225 216 221 204 228 239 202 179 186 185 180 180 181 181 172 169 168 171 171 171 169 174 187 195
238 223 213 215 217 221 233 232 230 216 199 210 189 188 190 193 186 189 188 184 185 178 176 171 170 170 169 174 174 181 190 186
228 224 214 214 217 218 225 221 230 208 211 227 209 203 204 185 187 183 190 191 185 181 178 178 180 180 172 176 179 190 182 180
235 226 224 221 219 220 222 231 230 229 223 211 211 194 199 195 208 193 190 191 186 185 183 182 183 183 175 175 171 176 170 169
232 233 229 224 223 215 221 228 229 231 216 207 199 203 199 203 193 188 192 196 189 187 185 185 184 182 179 177 159 156 169 170
232 231 225 223 218 215 220 226 228 227 218 209 199 194 197 195 187 190 194 194 192 190 187 185 185 184 177 175 167 155 169 172
230 223 220 217 208 219 222 222 222 222 212 201 201 199 193 193 197 192 195 193 193 193 190 189 183 182 183 178 178 166 170 179
223 224 225 208 206 214 223 222 217 217 218 217 208 206 210 216 204 197 195 193 194 197 192 186 182 187 187 180 183 180 184 184
220 224 225 214 209 210 222 216 216 217 223 216 212 212 210 210 206 198 197 193 194 196 193 192 189 191 190 187 185 189 194 200
220 227 224 216 197 202 218 220 216 220 228 230 220 203 205 203 200 201 197 193 196 197 196 193 194 193 191 189 191 196 203 213
221 230 222 204 195 205 213 211 204 211 214 215 209 205 204 201 202 201 200 196 196 197 198 195 189 192 187 187 198 202 205 214
220 230 224 211 204 207 217 212 201 206 192 196 181 186 187 201 198 200 201 196 196 197 199 194 195 194 189 187 191 202 209 214
217 226 226 212 203 211 219 206 209 211 203 203 189 180 188 199 199 204 203 200 200 200 200 203 198 191 197 192 170 198 207 214
215 221 225 217 206 209 226 216 206 211 204 206 211 205 201 203 200 206 207 206 208 206 205 207 207 197 196 208 211 211 192 205
211 215 223 225 209 211 219 221 223 218 224 217 221 222 221 219 212 204 209 209 209 209 207 205 208 213 209 207 214 217 216 211
209 212 220 228 218 213 215 220 223 228 230 236 242 234 229 225 223 209 206 211 208 212 210 209 208 219 228 225 220 218 219 232
209 210 218 224 223 220 220 220 225 235 240 243 243 242 231 233 226 219 215 215 209 211 213 210 220 222 228 230 229 229 229 227
208 211 213 217 224 227 225 227 229 232 228 230 233 232 231 232 225 221 224 222 220 216 218 218 215 227 230 233 232 234 233 228
Height
1467 1468 1470 1471 1474 1478 1481 1483 1487 1490 1494 1495 1497 1504 1505 1512 1517 1518 1515 1518 1522 1525 1526 1530 1534 1538 1542 1545 1547 1548 1549 1551
1464 1465 1467 1469 1473 1476 1478 1480 1483 1487 1491 1491 1498 1506 1506 1512 1517 1516 1516 1519 1522 1524 1527 1530 1535 1539 1543 1545 1547 1549 1550 1552
1460 1462 1465 1467 1470 1472 1475 1477 1481 1486 1488 1491 1496 1501 1504 1507 1514 1515 1516 1519 1521 1524 1529 1533 1536 1540 1543 1546 1547 1549 1551 1553
1458 1460 1462 1464 1467 1471 1472 1474 1477 1480 1484 1488 1490 1498 1503 1508 1511 1514 1515 1519 1522 1526 1530 1533 1537 1539 1543 1547 1548 1550 1551 1554
1456 1458 1460 1461 1464 1468 1469 1472 1475 1478 1482 1485 1488 1493 1498 1504 1508 1511 1516 1518 1522 1526 1529 1533 1537 1539 1543 1547 1549 1550 1551 1554
1453 1455 1456 1458 1460 1465 1467 1468 1471 1474 1476 1479 1484 1489 1493 1499 1503 1508 1513 1517 1521 1523 1527 1533 1537 1541 1544 1547 1549 1549 1551 1554
1450 1451 1453 1454 1457 1461 1464 1465 1467 1469 1472 1476 1481 1485 1490 1496 1500 1505 1511 1516 1520 1523 1528 1533 1537 1541 1545 1547 1549 1551 1553 1554
1448 1449 1450 1452 1454 1458 1461 1462 1463 1466 1469 1473 1478 1483 1487 1493 1497 1502 1510 1514 1519 1524 1527 1531 1536 1541 1544 1547 1550 1552 1554 1555
1445 1446 1448 1449 1452 1456 1458 1460 1461 1464 1467 1471 1476 1481 1486 1491 1495 1499 1507 1513 1519 1523 1528 1531 1537 1540 1543 1547 1550 1552 1555 1556
1442 1444 1445 1448 1451 1453 1456 1457 1459 1462 1466 1469 1472 1477 1483 1488 1492 1498 1505 1512 1517 1522 1527 1532 1535 1540 1543 1545 1549 1552 1555 1557
1440 1441 1443 1446 1448 1451 1453 1455 1457 1460 1463 1466 1468 1474 1479 1485 1490 1498 1504 1511 1516 1522 1526 1532 1533 1539 1542 1545 1548 1551 1554 1557
1437 1438 1440 1443 1445 1448 1450 1452 1455 1458 1461 1463 1463 1468 1475 1480 1487 1497 1503 1510 1515 1519 1525 1530 1534 1538 1542 1545 1548 1552 1554 1557
1434 1435 1437 1439 1442 1445 1447 1449 1453 1456 1458 1459 1458 1464 1469 1480 1487 1494 1500 1506 1512 1517 1524 1529 1532 1536 1540 1544 1548 1551 1553 1556
1430 1431 1433 1436 1439 1442 1444 1448 1451 1455 1458 1460 1462 1466 1470 1478 1486 1493 1499 1504 1511 1516 1521 1526 1530 1534 1536 1542 1546 1550 1551 1554
1426 1428 1430 1433 1437 1440 1443 1446 1450 1454 1457 1461 1464 1467 1473 1479 1485 1491 1497 1502 1507 1512 1518 1522 1523 1530 1534 1537 1542 1544 1548 1550
1423 1425 1427 1430 1434 1439 1441 1444 1447 1452 1456 1461 1464 1468 1472 1476 1482 1487 1495 1500 1505 1510 1516 1521 1523 1525 1531 1535 1538 1541 1543 1547
1419 1423 1425 1427 1431 1436 1440 1443 1446 1450 1455 1460 1463 1465 1469 1473 1478 1484 1490 1495 1502 1507 1512 1517 1521 1524 1526 1531 1534 1538 1540 1543
1415 1420 1423 1425 1429 1433 1436 1440 1444 1448 1452 1456 1460 1461 1464 1470 1475 1478 1485 1492 1498 1503 1509 1514 1519 1522 1525 1528 1530 1534 1536 1539
1410 1416 1420 1424 1427 1431 1435 1439 1443 1446 1449 1452 1455 1458 1461 1466 1471 1476 1482 1487 1493 1500 1505 1510 1515 1518 1521 1525 1527 1530 1533 1536
1406 1412 1418 1423 1426 1429 1434 1437 1440 1442 1445 1448 1451 1455 1459 1463 1467 1473 1477 1483 1488 1494 1499 1505 1509 1513 1517 1520 1523 1526 1529 1531